Hill City, KS

2:12 AM CST on January 17, 2017 (GMT -0600)
Hill City Municipal

Weather History for KHLC - April, 2013

Change the Weather History Date:

Tuesday, April 23, 2013

  Actual Average Record
Temperature  
Mean Temperature 33 °F 54 °F  
Max Temperature 41 °F 68 °F 96 °F (1939)
Min Temperature 24 °F 41 °F 24 °F (2013)
Degree Days  
Heating Degree Days 32    
Moisture  
Dew Point 25 °F    
Average Humidity 82    
Maximum Humidity 100    
Minimum Humidity 45    
Precipitation  
Precipitation 0.01 in 0.09 in 1.28 in (2014)
Month to date precipitation 0.24 1.52  
Year to date precipitation 2.22 4.12  
Sea Level Pressure  
Sea Level Pressure 30.27 in    
Wind  
Wind Speed 18 mph (North)    
Max Wind Speed 25 mph    
Max Gust Speed 33 mph    
Visibility 5 miles    
Events Snow    
T = Trace of Precipitation, MM = Missing Value Source: NWS Daily Summary

Daily Weather History Graph

Daily Weather History Graph

Search for Another Location

Airport or City:

Trip Planner

Search our weather history database for the weather conditions in past years. The results will help you decide how hot, cold, wet, or windy it might be!

Date:

Astronomy

Apr. 23, 2013 Rise Set
Actual Time 6:50 AM CDT 8:25 PM CDT
Civil Twilight 6:22 AM CDT 8:53 PM CDT
Nautical Twilight 5:48 AM CDT 9:27 PM CDT
Astronomical Twilight 5:11 AM CDT 10:04 PM CDT
Moon 6:22 PM CDT (4/23) 5:18 AM CDT (4/23)
Length of Visible Light 14h 31m
Length of Day
13h 34m
Waxing Gibbous, 94% of the Moon is Illuminated
Apr 23
Waxing Gibbous
Apr 25
Full
May 2
Last Quarter
May 9
New
May 17
First Quarter

Hourly Weather History & Observations

Time (CDT) Temp. Windchill Dew Point Humidity Pressure Visibility Wind Dir Wind Speed Gust Speed Precip Events Conditions
12:07 AM 30.2 °F 17.8 °F 28.4 °F 93% 30.24 in 0.8 mi North 19.6 mph 27.6 mph 0.00 in Snow Light Snow
12:16 AM 30.2 °F 17.4 °F 28.4 °F 93% 30.25 in 0.8 mi North 20.7 mph 28.8 mph 0.00 in Snow Light Snow
12:31 AM 30.2 °F 17.4 °F 28.4 °F 93% 30.25 in 1.2 mi North 20.7 mph - 0.00 in Snow Light Snow
12:38 AM 30.2 °F 18.9 °F 28.4 °F 93% 30.29 in 2.0 mi North 16.1 mph 26.5 mph 0.00 in Snow Light Snow
12:43 AM 30.2 °F 17.8 °F 28.4 °F 93% 30.28 in 3.0 mi North 19.6 mph 26.5 mph 0.00 in Snow Light Snow
12:53 AM 30.0 °F 17.5 °F 27.0 °F 88% 30.29 in 5.0 mi North 19.6 mph 27.6 mph 0.00 in Snow Light Snow
1:19 AM 30.2 °F 17.1 °F 26.6 °F 86% 30.25 in 1.8 mi North 21.9 mph - 0.00 in Snow Light Snow
1:36 AM 30.2 °F 16.2 °F 28.4 °F 93% 30.24 in 1.0 mi North 25.3 mph 28.8 mph 0.01 in Snow Light Snow
1:42 AM 28.4 °F 15.1 °F 28.4 °F 100% 30.24 in 0.8 mi NNE 20.7 mph - 0.01 in Snow Light Snow
1:45 AM 28.4 °F 16.2 °F 28.4 °F 100% 30.24 in 1.0 mi North 17.3 mph - 0.01 in Snow Light Snow
1:51 AM 28.4 °F 15.1 °F 28.4 °F 100% 30.23 in 2.0 mi NNE 20.7 mph 27.6 mph 0.01 in Snow Light Snow
1:53 AM 28.9 °F 16.1 °F 28.0 °F 96% 30.27 in 2.5 mi North 19.6 mph 27.6 mph 0.01 in Snow Light Snow
2:02 AM 28.4 °F 13.8 °F 26.6 °F 93% 30.25 in 4.0 mi North 25.3 mph 32.2 mph 0.00 in Snow Light Snow
2:12 AM 28.4 °F 14.4 °F 26.6 °F 93% 30.26 in 1.8 mi North 23.0 mph 33.4 mph 0.00 in Snow Light Snow
2:28 AM 28.4 °F 14.4 °F 26.6 °F 93% 30.25 in 2.5 mi North 23.0 mph 27.6 mph 0.00 in Snow Light Snow
2:39 AM 28.4 °F 14.1 °F 26.6 °F 93% 30.22 in 3.0 mi NNE 24.2 mph 29.9 mph 0.00 in Snow Light Snow
2:51 AM 28.4 °F 14.4 °F 26.6 °F 93% 30.23 in 2.0 mi NNE 23.0 mph 28.8 mph 0.00 in Snow Light Snow
2:53 AM 28.9 °F 15.1 °F 27.0 °F 92% 30.27 in 2.0 mi NNE 23.0 mph - 0.00 in Snow Light Snow
3:10 AM 28.4 °F 14.7 °F 26.6 °F 93% 30.23 in 3.0 mi NNE 21.9 mph 28.8 mph 0.00 in Snow Light Snow
3:53 AM 28.9 °F 15.8 °F 26.1 °F 89% 30.27 in 5.0 mi NNE 20.7 mph 27.6 mph 0.00 in Snow Light Snow
4:25 AM 28.4 °F 15.4 °F 26.6 °F 93% 30.23 in 2.0 mi North 19.6 mph 25.3 mph 0.00 in Snow Light Snow
4:34 AM 28.4 °F 18.0 °F 26.6 °F 93% 30.30 in 1.5 mi North 12.7 mph 24.2 mph 0.00 in Snow Light Snow
4:41 AM 28.4 °F 16.2 °F 26.6 °F 93% 30.25 in 2.5 mi North 17.3 mph - 0.00 in Snow Light Snow
4:49 AM 28.4 °F 15.4 °F 26.6 °F 93% 30.23 in 4.0 mi North 19.6 mph - 0.00 in Snow Light Snow
4:53 AM 28.0 °F 15.3 °F 26.1 °F 92% 30.28 in 4.0 mi North 18.4 mph - 0.00 in Snow Light Snow
5:09 AM 28.4 °F 16.6 °F 26.6 °F 93% 30.25 in 2.0 mi North 16.1 mph - 0.00 in Snow Light Snow
5:34 AM 28.4 °F 15.8 °F 26.6 °F 93% 30.24 in 1.8 mi North 18.4 mph 25.3 mph 0.00 in Snow Light Snow
5:53 AM 28.0 °F 16.5 °F 26.1 °F 92% 30.30 in 3.0 mi North 15.0 mph 23.0 mph 0.00 in Snow Light Snow
6:53 AM 27.0 °F 13.9 °F 25.0 °F 92% 30.30 in 2.5 mi North 18.4 mph - 0.00 in Snow Light Snow
7:29 AM 28.4 °F 17.0 °F 24.8 °F 86% 30.24 in 4.0 mi North 15.0 mph - 0.00 in Snow Light Snow
7:53 AM 28.0 °F 16.1 °F 23.0 °F 81% 30.32 in 4.0 mi North 16.1 mph - 0.00 in Snow Light Snow
8:09 AM 26.6 °F 13.1 °F 23.0 °F 86% 30.27 in 2.0 mi North 19.6 mph 26.5 mph 0.00 in Snow Light Snow
8:13 AM 26.6 °F 13.8 °F 23.0 °F 86% 30.27 in 1.2 mi North 17.3 mph - 0.00 in Snow Light Snow
8:32 AM 28.4 °F 17.5 °F 21.2 °F 74% 30.28 in 2.0 mi North 13.8 mph 25.3 mph 0.00 in Snow Light Snow
8:43 AM 28.4 °F 15.8 °F 21.2 °F 74% 30.28 in 4.0 mi North 18.4 mph 24.2 mph 0.00 in Snow Light Snow
8:53 AM 28.0 °F 15.7 °F 21.9 °F 78% 30.34 in 4.0 mi North 17.3 mph - 0.00 in Snow Light Snow
9:01 AM 28.4 °F 16.2 °F 21.2 °F 74% 30.27 in 6.0 mi North 17.3 mph - 0.00 in Snow Light Snow
9:53 AM 28.9 °F 17.7 °F 23.0 °F 78% 30.34 in 10.0 mi North 15.0 mph - 0.00 in   Overcast
10:53 AM 30.0 °F 18.3 °F 21.0 °F 69% 30.34 in 10.0 mi North 17.3 mph 24.2 mph 0.00 in   Overcast
11:40 AM 30.2 °F 17.8 °F 23.0 °F 75% 30.28 in 3.0 mi North 19.6 mph 24.2 mph 0.00 in Snow Light Snow
11:53 AM 30.9 °F 20.7 °F 24.1 °F 76% 30.35 in 2.5 mi North 13.8 mph - 0.00 in Snow Light Snow
12:06 PM 30.2 °F 18.9 °F 23.0 °F 75% 30.28 in 3.0 mi North 16.1 mph - 0.00 in Snow Light Snow
12:23 PM 32.0 °F 20.8 °F 21.2 °F 64% 30.28 in 9.0 mi North 17.3 mph 23.0 mph 0.00 in Snow Light Snow
12:53 PM 32.0 °F 21.2 °F 23.0 °F 69% 30.34 in 9.0 mi North 16.1 mph - 0.00 in Snow Light Snow
1:53 PM 35.1 °F 25.9 °F 24.1 °F 64% 30.32 in 9.0 mi North 13.8 mph - 0.00 in   Overcast
2:53 PM 37.9 °F 29.2 °F 24.1 °F 57% 30.29 in 10.0 mi North 15.0 mph - N/A   Overcast
3:53 PM 37.9 °F 29.6 °F 24.1 °F 57% 30.27 in 10.0 mi North 13.8 mph - N/A   Overcast
4:53 PM 37.9 °F 29.6 °F 23.0 °F 55% 30.27 in 10.0 mi North 13.8 mph - N/A   Overcast
5:53 PM 39.0 °F 31.8 °F 21.0 °F 49% 30.24 in 10.0 mi North 11.5 mph - N/A   Partly Cloudy
6:53 PM 39.9 °F 35.1 °F 19.9 °F 45% 30.24 in 10.0 mi North 6.9 mph - N/A   Clear
7:53 PM 37.9 °F 33.5 °F 21.0 °F 51% 30.24 in 10.0 mi North 5.8 mph - N/A   Clear
8:53 PM 30.0 °F - 21.9 °F 72% 30.27 in 10.0 mi Calm Calm - N/A   Clear
9:53 PM 28.9 °F - 23.0 °F 78% 30.30 in 10.0 mi Calm Calm - N/A   Clear
10:53 PM 28.0 °F 24.2 °F 21.9 °F 78% 30.32 in 10.0 mi SW 3.5 mph - N/A   Clear
11:53 PM 25.0 °F - 21.0 °F 85% 30.31 in 10.0 mi Calm Calm - N/A   Clear